Location: Chuathbaluk
(61.5726°N, 159.2454°W)
Time: 13:45:15
(UTC+00:00)

ZACube-1 - Pass Details

Date: 18 January 2021
Orbit: 583 x 666 km, 97.6° (Epoch: 01 March)

Event Time Altitude Azimuth Distance (km) Brightness Sun altitude
Rises 14:12:39 0° 23° (NNE) 3,023 ? -35.9°
Reaches altitude 10° 14:16:02 10° 49° (NE) 2,106 ? -35.5°
Maximum altitude 14:18:22 14° 80° (E) 1,859 ? -35.2°
Drops below altitude 10° 14:20:42 10° 111° (ESE) 2,095 ? -35.0°
Sets 14:24:02 0° 137° (SE) 2,994 ? -34.6°
